Galveston, TX

7:13 AM CDT on June 28, 2017 (GMT -0500)
Scholes International At Galveston

Weather History for KGLS - August, 2013

Change the Weather History Date:

Tuesday, August 6, 2013

  Actual Average Record
Temperature  
Mean Temperature 88 °F 85 °F  
Max Temperature 93 °F 90 °F 96 °F (1913)
Min Temperature 83 °F 80 °F 70 °F (1914)
Degree Days  
Heating Degree Days 0 0  
Month to date heating degree days 0 0  
Since 1 June heating degree days 0 0  
Since 1 July heating degree days 0 0  
Cooling Degree Days 23 20  
Month to date cooling degree days 136 120  
Year to date cooling degree days 1910 1894  
Since 1 June cooling degree days 1359 1259  
Growing Degree Days 36 (Base 50)    
Moisture  
Dew Point 78 °F    
Average Humidity 76    
Maximum Humidity 85    
Minimum Humidity 66    
Precipitation  
Precipitation 0.00 in 0.10 in 3.01 in (1882)
Month to date precipitation T 0.61  
Year to date precipitation 20.38 27.40  
Snow  
Snow 0.00 in - - ()
Month to date snowfall 0.0  
Since 1 June snowfall 0.0  
Since 1 July snowfall 0.0  
Snow Depth 0.00 in    
Sea Level Pressure  
Sea Level Pressure 29.96 in    
Wind  
Wind Speed 15 mph (SSW)    
Max Wind Speed 21 mph    
Max Gust Speed 25 mph    
Visibility 10 miles    
Events      
T = Trace of Precipitation, MM = Missing Value Source: NWS Daily Summary

Daily Weather History Graph

Daily Weather History Graph

Search for Another Location

Airport or City:

Trip Planner

Search our weather history database for the weather conditions in past years. The results will help you decide how hot, cold, wet, or windy it might be!

Date:

Astronomy

Aug. 06, 2013 Rise Set
Actual Time 6:42 AM CDT 8:07 PM CDT
Civil Twilight 6:17 AM CDT 8:32 PM CDT
Nautical Twilight 5:47 AM CDT 9:02 PM CDT
Astronomical Twilight 5:15 AM CDT 9:34 PM CDT
Moon 6:30 AM CDT (8/6) 7:49 PM CDT (8/6)
Length of Visible Light 14h 15m
Length of Day
13h 24m
Waning Crescent, 0% of the Moon is Illuminated
Aug 6
Waning Crescent
Aug 6
New
Aug 14
First Quarter
Aug 20
Full
Aug 28
Last Quarter

Hourly Weather History & Observations

Time (CDT) Temp. Heat Index Dew Point Humidity Pressure Visibility Wind Dir Wind Speed Gust Speed Precip Events Conditions
12:52 AM 84.0 °F 94.8 °F 78.1 °F 82% 30.00 in 10.0 mi South 11.5 mph - N/A   Clear
1:52 AM 84.0 °F 94.8 °F 78.1 °F 82% 29.97 in 10.0 mi SSW 13.8 mph - N/A   Partly Cloudy
2:52 AM 84.0 °F 94.8 °F 78.1 °F 82% 29.96 in 10.0 mi SSW 15.0 mph - N/A   Clear
3:52 AM 84.0 °F 94.8 °F 78.1 °F 82% 29.96 in 10.0 mi SSW 11.5 mph - N/A   Clear
4:52 AM 84.0 °F 94.8 °F 78.1 °F 82% 29.95 in 10.0 mi SSW 12.7 mph - N/A   Partly Cloudy
5:52 AM 84.0 °F 94.8 °F 78.1 °F 82% 29.96 in 10.0 mi SSW 11.5 mph - N/A   Scattered Clouds
6:52 AM 82.9 °F 91.8 °F 77.0 °F 82% 29.96 in 10.0 mi SSW 9.2 mph - N/A   Clear
7:52 AM 84.9 °F 96.6 °F 78.1 °F 80% 29.97 in 10.0 mi SSW 15.0 mph - N/A   Clear
8:52 AM 87.1 °F 99.8 °F 78.1 °F 74% 29.99 in 10.0 mi SW 12.7 mph - N/A   Scattered Clouds
9:52 AM 89.1 °F 103.2 °F 78.1 °F 70% 30.00 in 10.0 mi SSW 13.8 mph 21.9 mph N/A   Scattered Clouds
10:52 AM 90.0 °F 104.5 °F 78.1 °F 68% 30.00 in 10.0 mi SSW 16.1 mph 24.2 mph N/A   Scattered Clouds
11:52 AM 91.0 °F 106.2 °F 78.1 °F 66% 30.01 in 10.0 mi SSW 17.3 mph - N/A   Clear
12:52 PM 91.0 °F 107.6 °F 79.0 °F 68% 30.00 in 10.0 mi South 17.3 mph - N/A   Clear
1:52 PM 91.0 °F 106.2 °F 78.1 °F 66% 29.99 in 10.0 mi SSW 17.3 mph - N/A   Clear
2:52 PM 91.9 °F 108.8 °F 79.0 °F 66% 29.97 in 10.0 mi South 18.4 mph - N/A   Clear
3:52 PM 91.0 °F 107.6 °F 79.0 °F 68% 29.96 in 10.0 mi South 17.3 mph - N/A   Clear
4:52 PM 91.0 °F 107.6 °F 79.0 °F 68% 29.95 in 10.0 mi South 16.1 mph - N/A   Clear
5:52 PM 90.0 °F 105.8 °F 79.0 °F 70% 29.94 in 10.0 mi South 18.4 mph - N/A   Clear
6:52 PM 88.0 °F 103.1 °F 79.0 °F 75% 29.92 in 10.0 mi South 15.0 mph - N/A   Clear
7:52 PM 86.0 °F 99.3 °F 79.0 °F 79% 29.91 in 10.0 mi South 16.1 mph - N/A   Clear
8:52 PM 86.0 °F 99.3 °F 79.0 °F 79% 29.92 in 10.0 mi South 15.0 mph - N/A   Clear
9:52 PM 84.9 °F 96.6 °F 78.1 °F 80% 29.94 in 10.0 mi South 13.8 mph - N/A   Clear
10:52 PM 84.9 °F 96.6 °F 78.1 °F 80% 29.95 in 10.0 mi South 11.5 mph - N/A   Partly Cloudy
11:52 PM 84.9 °F 97.5 °F 79.0 °F 82% 29.96 in 10.0 mi South 15.0 mph - N/A   Mostly Cloudy